Weather History for KDXR - May, 2014

Change the Weather History Date:

Saturday, May 10, 2014

  Actual Average (KBDR) Record (KBDR)
Temperature  
Mean Temperature 67 °F 57 °F  
Max Temperature 79 °F 66 °F 87 °F (1987)
Min Temperature 57 °F 49 °F 31 °F (1966)
Degree Days  
Heating Degree Days 0 8  
Month to date heating degree days 94  
Since 1 July heating degree days 5249  
Cooling Degree Days 2 0  
Month to date cooling degree days 0  
Year to date cooling degree days 2  
Growing Degree Days 17 (Base 50)    
Moisture  
Dew Point 59 °F    
Average Humidity 85    
Maximum Humidity 100    
Minimum Humidity 56    
Precipitation  
Precipitation 0.15 in 0.11 in 2.07 in (1990)
Month to date precipitation 1.15  
Year to date precipitation 15.22  
Snow  
Snow 0.00 in 0.00 in 0.00 in (2002)
Month to date snowfall 0.0  
Since 1 July snowfall 27.6  
Snow Depth -    
Sea Level Pressure  
Sea Level Pressure 29.90 in    
Wind  
Wind Speed 5 mph (SSW)    
Max Wind Speed 20 mph    
Max Gust Speed 36 mph    
Visibility 5 miles    
Events Fog , Rain , Thunderstorm    
T = Trace of Precipitation, MM = Missing Value Source: NWS Daily Summary

Daily Weather History Graph

Daily Weather History Graph

Search for Another Location

Airport or City:

Trip Planner

Search our weather history database for the weather conditions in past years. The results will help you decide how hot, cold, wet, or windy it might be!

Date:

Astronomy

May. 10, 2014 Rise Set
Actual Time 5:40 AM EDT 8:00 PM EDT
Civil Twilight 5:09 AM EDT 8:31 PM EDT
Nautical Twilight 4:31 AM EDT 9:10 PM EDT
Astronomical Twilight 3:48 AM EDT 9:53 PM EDT
Moon 3:51 PM EDT (5/10) 3:15 AM EDT (5/10)
Length of Visible Light 15h 22m
Length of Day
14h 20m
Waxing Gibbous, 82% of the Moon is Illuminated
May 10
Waxing Gibbous
May 14
Full
May 21
Last Quarter
May 28
New
Jun 5
First Quarter

Hourly Weather History & Observations

Time (EDT) Temp. Dew Point Humidity Pressure Visibility Wind Dir Wind Speed Gust Speed Precip Events Conditions
12:11 AM 57.0 °F 57.0 °F 100% 30.04 in 2.0 mi East 4.6 mph - N/A   Overcast
12:20 AM 57.0 °F 57.0 °F 100% 30.03 in 1.5 mi East 5.8 mph - N/A   Overcast
12:47 AM 57.2 °F 57.2 °F 100% 30.01 in 0.8 mi NE 3.5 mph - N/A   Overcast
12:53 AM 57.0 °F 57.0 °F 100% 30.01 in 0.8 mi Calm Calm - N/A   Mist
1:53 AM 57.9 °F 57.9 °F 100% 29.96 in 0.5 mi Calm Calm - N/A Fog Fog
2:53 AM 57.9 °F 57.9 °F 100% 29.93 in 0.2 mi SE 5.8 mph - N/A Fog Fog
3:53 AM 57.9 °F 57.9 °F 100% 29.92 in 0.8 mi ESE 3.5 mph - N/A   Mist
4:04 AM 57.9 °F 57.9 °F 100% 29.92 in 1.0 mi Variable 3.5 mph - N/A   Mist
4:19 AM 57.9 °F 57.9 °F 100% 29.92 in 1.2 mi Calm Calm - N/A   Overcast
4:29 AM 57.9 °F 57.9 °F 100% 29.91 in 3.0 mi Calm Calm - N/A   Overcast
4:53 AM 57.9 °F 57.9 °F 100% 29.90 in 2.5 mi Calm Calm - N/A   Overcast
5:11 AM 57.9 °F 57.9 °F 100% 29.91 in 3.0 mi Calm Calm - N/A   Overcast
5:29 AM 57.9 °F 57.9 °F 100% 29.91 in 5.0 mi SSW 3.5 mph - 0.00 in   Overcast
5:39 AM 57.9 °F 57.9 °F 100% 29.91 in 5.0 mi SSW 4.6 mph - 0.00 in   Overcast
5:53 AM 57.9 °F 57.9 °F 100% 29.92 in 4.0 mi SW 4.6 mph - 0.00 in Rain Light Rain
7:53 AM 59.0 °F 57.9 °F 96% 29.92 in 5.0 mi WSW 6.9 mph - N/A   Overcast
8:53 AM 61.0 °F 60.1 °F 97% 29.93 in 4.0 mi West 6.9 mph - N/A   Overcast
9:53 AM 64.0 °F 61.0 °F 90% 29.92 in 4.0 mi WSW 11.5 mph - N/A   Overcast
10:53 AM 66.0 °F 62.1 °F 87% 29.92 in 4.0 mi WSW 11.5 mph - N/A   Mostly Cloudy
11:24 AM 70.0 °F 63.0 °F 78% 29.92 in 6.0 mi WSW 11.5 mph - N/A   Haze
11:53 AM 71.1 °F 63.0 °F 75% 29.91 in 7.0 mi West 11.5 mph - N/A   Clear
12:53 PM 73.9 °F 62.1 °F 66% 29.89 in 9.0 mi West 11.5 mph - N/A   Clear
1:53 PM 77.0 °F 62.1 °F 60% 29.86 in 7.0 mi WSW 9.2 mph - N/A   Mostly Cloudy
2:53 PM 77.0 °F 60.1 °F 56% 29.83 in 7.0 mi SW 10.4 mph - N/A   Mostly Cloudy
3:08 PM 77.0 °F 61.0 °F 58% 29.83 in 5.0 mi SSW 11.5 mph - 0.02 in Rain , Thunderstorm Light Rain
3:14 PM 73.0 °F 62.1 °F 68% 29.83 in 2.5 mi Variable 6.9 mph - 0.06 in Rain , Thunderstorm Heavy Thunderstorms and Rain
3:39 PM 68.0 °F 61.0 °F 78% 29.83 in 8.0 mi Variable 3.5 mph - 0.15 in Rain , Thunderstorm Light Thunderstorms and Rain
3:53 PM 69.1 °F 62.1 °F 78% 29.83 in 8.0 mi South 4.6 mph - 0.15 in Thunderstorm Mostly Cloudy
4:20 PM 73.9 °F 60.1 °F 62% 29.84 in 10.0 mi SW 8.1 mph - N/A   Partly Cloudy
5:53 PM 73.0 °F 60.1 °F 64% 29.80 in 9.0 mi South 19.6 mph 35.7 mph N/A   Partly Cloudy
6:53 PM 72.0 °F 55.9 °F 57% 29.83 in 10.0 mi SSE 4.6 mph - N/A   Overcast
7:53 PM 66.9 °F 57.9 °F 73% 29.85 in 10.0 mi North 4.6 mph - N/A   Scattered Clouds
8:53 PM 64.9 °F 59.0 °F 81% 29.84 in 10.0 mi Calm Calm - N/A   Mostly Cloudy
9:53 PM 66.9 °F 55.9 °F 68% 29.86 in 10.0 mi WSW 6.9 mph - N/A   Mostly Cloudy
11:53 PM 66.0 °F 55.0 °F 68% 29.86 in 10.0 mi WSW 11.5 mph - N/A   Scattered Clouds